Regional Weather Roundup
Issued by NWS Upton, NY

Current Version | Previous Version | Graphics & Text | Print | Product List | Glossary Off
Versions: 1 2 3 4 5 6 7 8 9 10 11 12 13 14 15 16 17 18 19 20 21 22 23 24 25 26 27

000
ASUS41 KOKX 221109
RWROKX

REGIONAL WEATHER ROUNDUP
NATIONAL WEATHER SERVICE NEW YORK NY
700 AM EDT THU JUN 22 2017

NOTE: "FAIR" INDICATES FEW OR NO CLOUDS BELOW 12,000 FEET WITH NO
SIGNIFICANT WEATHER AND/OR OBSTRUCTIONS TO VISIBILITY.

NYZ071-072-176-178-NJZ106-104-221200-
NEW YORK CITY METRO AREA

CITY           SKY/WX    TMP DP  RH WIND       PRES   REMARKS
Central Park   MOSUNNY   70  58  65 CALM      30.04R
Bronx Bot Gard   N/A     70  54  56 E1        30.02F
LaGuardia APRT PTSUNNY   70  56  61 NE3       30.01R
Kennedy INTL   PTSUNNY   71  60  68 NE5       30.02R
Breezy Point     N/A     68 N/A N/A N1          N/A
Newark/Liberty MOSUNNY   70  59  68 N7        30.01R
Teterboro      SUNNY     68  58  70 CALM      30.01R
$$

NYZ177-179-078>081-221200-
LONG ISLAND NEW YORK

CITY           SKY/WX    TMP DP  RH WIND       PRES   REMARKS
Jones Beach      N/A     66 N/A N/A E2          N/A
Matinecock PT  NOT AVBL
Farmingdale    NOT AVBL
MacArthur/ISP  MOSUNNY   67  60  78 CALM      30.01R
Shirley        MOSUNNY   66  63  90 N3        30.01R
Mt Sinai Harb    N/A     64 N/A N/A MISG        N/A
Westhampton    SUNNY     67  58  72 N5        30.03R
East Hampton   FAIR      65  56  72 N3        30.00R
Montauk          N/A     68  56  65 NW3       30.01R
$$

NYZ052-065-067-221200-
HUDSON VALLEY

CITY           SKY/WX    TMP DP  RH WIND       PRES   REMARKS
White Plains   SUNNY     66  55  68 W5        30.02R
Larchmont Harb   N/A     64 N/A N/A CALM        N/A
Croton O-T Hud   N/A     64 N/A N/A MISG        N/A
Newburgh       SUNNY     61  57  88 CALM      30.04R
Montgomery     SUNNY     59  57  93 CALM      30.02S
Poughkeepsie   SUNNY     59  56  89 CALM      30.02R
Albany         SUNNY     61  53  75 CALM      30.01S
$$

NJZ001-105-106-008-010-013-015-019>022-104-221200-
NEW JERSEY

CITY           SKY/WX    TMP DP  RH WIND       PRES   REMARKS
Newark/Liberty MOSUNNY   70  59  68 N7        30.01R
Teterboro      SUNNY     68  58  70 CALM      30.01R
Caldwell       SUNNY     66  60  81 CALM      30.03R
Somerville     MOSUNNY   62  59  90 CALM      30.01R
Linden         NOT AVBL
Perth Amboy      N/A     70 N/A N/A SE1         N/A
Sussex         SUNNY     58  57  97 CALM      30.03S
Andover          N/A     59  59 100 CALM      30.04R
Trenton        MOSUNNY   66  64  93 CALM      30.01R
Millville      CLOUDY    68  68 100 CALM      30.01R
Atlantic City  MOSUNNY   71  69  93 CALM      30.01
Wrightstown    SUNNY     66  65  97 CALM      30.00R
Toms River     CLOUDY    66  65  96 CALM      30.03R
Belmar         CLOUDY    65  63  93 W3        30.03R FOG
$$

PAZ047>061-062-071-221200-
EASTERN PENNSYLVANIA

CITY           SKY/WX    TMP DP  RH WIND       PRES   REMARKS
Philadelphia   PTSUNNY   71  65  81 VRB3      30.02R
Allentown      MOSUNNY   62  59  90 N5        30.03R
Scranton       MOSUNNY   58  53  84 SE3       30.05R
$$

CTZ002-004>006-009-010-012-RIZ004-006-007-MAZ004-011-015-221200-
SOUTHERN NEW ENGLAND
 IN CT

CITY           SKY/WX    TMP DP  RH WIND       PRES   REMARKS
Bradley INTL   MOSUNNY   64  53  67 CALM      30.01R
Hartford       SUNNY     61  59  93 CALM      30.01R
Danbury        SUNNY     60  57  89 CALM      30.04R
Wtrbury/Oxford MOSUNNY   61  54  77 CALM      30.04R
Bridgeport     SUNNY     68  56  65 CALM      30.01R
Meriden        SUNNY     60  58  92 CALM      30.01R
New Haven      MOSUNNY   66  61  82 CALM      30.01R
Chester        FAIR      66  54  63 NW5       30.01S
Groton         SUNNY     67  54  63 NW6       29.99R
Wilimantic     SUNNY     62  57  83 CALM      30.01R

 IN RI

CITY           SKY/WX    TMP DP  RH WIND       PRES   REMARKS
Providence     MOSUNNY   65  55  70 NW7       29.99R
Block Island   SUNNY     66  55  67 W8        30.00R
Westerly       SUNNY     67  53  61 VRB5      30.00R
 IN MA

CITY           SKY/WX    TMP DP  RH WIND       PRES   REMARKS
Boston         MOSUNNY   68  52  56 W5        29.97R
Worcester      SUNNY     61  48  62 W9        30.00R
Westfield      SUNNY     61  56  83 SE3       30.00
Provincetown   SUNNY     61  56  83 W8        29.98R
Nantucket      SUNNY     67  59  75 NW10      29.97R
$$

ANZ330-335-338-340-345-350-353-355-221200-
COASTAL MARINE OBSERVATIONS


STATION/POSITION TIME  SKY/WX   TEMP    WIND        PRES    VSBY  WAVE
                                AIR SEA DIR/SP/G                  HT/PER
                 (UTC)          (F)     (DEG/KT/KT) (MB)    (MI)  (FT/S)
NY HARB ENTRANCE 0950            66 64  330/  4/  6 1015.5          2/ 6
20 S FIRE ISLAND 1050            67 67  300/  4/  4 1015.8          3/ 6
GREAT SOUTH BAY  1030            68 74   40/  4/  8   N/A
23 SSW MONTAUK P 0950            64 62              1015.7          4/ 6
15 E BARNEGAT LI 1030               66                N/A           3/ 6
HUDSON CANYON    0950            67 65  280/  6/  6 1015.6          3/ 5
KINGS POINT      1042            66 64     CALM     1016.3
EXECUTION ROCKS  1045            66     350/  2/  4   N/A
CENTRAL LI SOUND NOT AVBL
EASTERN LI SOUND NOT AVBL
ROBBINS REEF     1036                   310/  2/  2 1016.8
$$


>>>>>>>>>>>>>>>>>>>>>>>>>>>> KEY <<<<<<<<<<<<<<<<<<<<<<<<<<<
>                                                          <
>     SKY/WX - Sky Condition/Present Weather               <
>     TMP    - Temperature in Fahrenheit                   <
>     DP     - Dew Point in Fahrenheit                     <
>     RH     - Relative Humidity in Percent                <
>     WIND   - Direction (from) and Speed in MPH           <
>     PRES   - Mean Sea Level Pressure (inches of Hg)      <
>     WCI    - Wind Chill Index                            <
>     VSB    - VISIBILITY IN MILES                         <
>     HX     - HEAT INDEX                                  <
>     TC     - TEMPERATURE IN CELSIUS                      <
>     VRB    - VARIABLE WIND DIRECTION                     <
>                                                          <
>>>>>>>>>>>>>>>>>>>>>>>>>>>> KEY <<<<<<<<<<<<<<<<<<<<<<<<<<<




USA.gov is the U.S. government's official web portal to all federal, state and local government web resources and services.